Seattle Boeing, WA
on Tuesday, February 5, 2013

Tuesday
Previous Day Next Day
Daily Summary
 ActualAverage (KSEA)Record (KSEA)
Temperature
Mean Temperature °F / °C 43°F / 6°C  
Max Temperature 52°F / 11°C 49°F / 9°C 62°F / 16°C (1987)
Min Temperature 44°F / 7°C 37°F / 3°C 14°F / -10°C (1989)
Degree Days
Heating Degree Days 17 22  
Month to date heating degree days 110  
Since 1 July heating degree days 2759  
Cooling Degree Days 0 0  
Month to date cooling degree days 0  
Year to date cooling degree days 0  
Moisture
Dew Point 40°F / 4°C   
Average Humidity 76    
Maximum Humidity 87    
Minimum Humidity 63    
Precipitation
Precipitation 0.18 in / 4.57 cm 0.14 in / 3.56 cm 0.96 in / 2.44 cm (1961)
Month to date precipitation 0.67  
Year to date precipitation 6.24  
Snow
Snow 0.00 in / 0.00 cm in / cm 1.70 in / 4.32 cm (1949)
Month to date snowfall  
Since 1 July snowfall  
Snow Depth in / cm   
Wind
Wind Speed 9 mph / 14 km/h   
Max Wind Speed 17 mph / 27 km/h   
Max Gust Speed 33 mph / 53 km/h   
Visibility 10 miles / 16 kilometers   
Events Rain   

Key: T is trace of precipitation, MM is missing value
Source: NWS Daily Summary
Time(PST)TemperatureDew PointHumidity Pressure Visibility Wind DirectionWind SpeedGust SpeedPrecipitationEvents Conditions
12:53 AM 44.1°F / 6.7°C 39.9°F / 4.4°C 85% 29.90 in / 1012.5 hPa 10.0 miles / 16.1 kilometers SE 8.1 mph / 13.0 km/h - N/A   Scattered Clouds
1:53 AM 46.0°F / 7.8°C 41.0°F / 5.0°C 83% 29.90 in / 1012.3 hPa 10.0 miles / 16.1 kilometers SE 8.1 mph / 13.0 km/h - N/A   Overcast
2:08 AM 46.4°F / 8.0°C 41.0°F / 5.0°C 81% 29.90 in / 1012.4 hPa 10.0 miles / 16.1 kilometers SSE 8.1 mph / 13.0 km/h - N/A   Overcast
2:53 AM 46.0°F / 7.8°C 41.0°F / 5.0°C 83% 29.88 in / 1011.8 hPa 10.0 miles / 16.1 kilometers SE 8.1 mph / 13.0 km/h - N/A   Overcast
3:09 AM 46.4°F / 8.0°C 39.2°F / 4.0°C 76% 29.87 in / 1011.4 hPa 10.0 miles / 16.1 kilometers SSE 8.1 mph / 13.0 km/h - N/A   Overcast
3:53 AM 46.0°F / 7.8°C 41.0°F / 5.0°C 83% 29.88 in / 1011.8 hPa 10.0 miles / 16.1 kilometers SSE 5.8 mph / 9.3 km/h - N/A   Overcast
4:53 AM 46.9°F / 8.3°C 41.0°F / 5.0°C 80% 29.88 in / 1011.9 hPa 9.0 miles / 14.5 kilometers South 10.4 mph / 16.7 km/h 33.4 mph / 53.7 km/h 0.02 in / 0.5 cm Rain Light Rain
5:53 AM 46.0°F / 7.8°C 41.0°F / 5.0°C 83% 29.86 in / 1011.1 hPa 10.0 miles / 16.1 kilometers SSE 10.4 mph / 16.7 km/h - 0.04 in / 1.0 cm Rain Light Rain
6:53 AM 46.4°F / 8.0°C 42.8°F / 6.0°C 87% 29.85 in / 1010.7 hPa 10.0 miles / 16.1 kilometers SE 9.2 mph / 14.8 km/h 18.4 mph / 29.6 km/h N/A Rain Light Rain
7:53 AM 46.0°F / 7.8°C 42.1°F / 5.6°C 86% 29.86 in / 1011.0 hPa 10.0 miles / 16.1 kilometers SSE 3.5 mph / 5.6 km/h - 0.00 in / 0.0 cm   Overcast
8:53 AM 46.9°F / 8.3°C 42.1°F / 5.6°C 83% 29.87 in / 1011.4 hPa 10.0 miles / 16.1 kilometers SE 9.2 mph / 14.8 km/h - N/A   Overcast
9:53 AM 48.9°F / 9.4°C 39.9°F / 4.4°C 71% 29.87 in / 1011.4 hPa 10.0 miles / 16.1 kilometers SSE 8.1 mph / 13.0 km/h - N/A   Mostly Cloudy
10:53 AM 52.0°F / 11.1°C 41.0°F / 5.0°C 66% 29.88 in / 1011.7 hPa 10.0 miles / 16.1 kilometers South 11.5 mph / 18.5 km/h - N/A   Mostly Cloudy
11:53 AM 51.1°F / 10.6°C 39.9°F / 4.4°C 66% 29.88 in / 1011.6 hPa 10.0 miles / 16.1 kilometers South 10.4 mph / 16.7 km/h 19.6 mph / 31.5 km/h 0.01 in / 0.3 cm   Overcast
12:53 PM 52.0°F / 11.1°C 39.9°F / 4.4°C 63% 29.86 in / 1011.2 hPa 10.0 miles / 16.1 kilometers South 12.7 mph / 20.4 km/h 20.7 mph / 33.3 km/h N/A   Mostly Cloudy
1:53 PM 51.1°F / 10.6°C 41.0°F / 5.0°C 68% 29.85 in / 1010.8 hPa 10.0 miles / 16.1 kilometers South 9.2 mph / 14.8 km/h 19.6 mph / 31.5 km/h 0.00 in / 0.0 cm   Scattered Clouds
2:53 PM 51.1°F / 10.6°C 39.0°F / 3.9°C 63% 29.86 in / 1010.9 hPa 10.0 miles / 16.1 kilometers South 8.1 mph / 13.0 km/h 19.6 mph / 31.5 km/h 0.01 in / 0.3 cm Rain Light Rain
3:53 PM 50.0°F / 10.0°C 39.0°F / 3.9°C 66% 29.86 in / 1010.9 hPa 10.0 miles / 16.1 kilometers South 17.3 mph / 27.8 km/h 25.3 mph / 40.7 km/h 0.01 in / 0.3 cm   Overcast
4:53 PM 48.0°F / 8.9°C 39.9°F / 4.4°C 74% 29.86 in / 1011.1 hPa 8.0 miles / 12.9 kilometers SW 6.9 mph / 11.1 km/h - 0.01 in / 0.3 cm Rain Light Rain
5:53 PM 46.0°F / 7.8°C 41.0°F / 5.0°C 83% 29.87 in / 1011.3 hPa 9.0 miles / 14.5 kilometers South 5.8 mph / 9.3 km/h - 0.07 in / 1.8 cm Rain Light Rain
5:57 PM 46.4°F / 8.0°C 41.0°F / 5.0°C 81% 29.87 in / 1011.4 hPa 10.0 miles / 16.1 kilometers South 4.6 mph / 7.4 km/h - N/A Rain Light Rain
6:53 PM 48.0°F / 8.9°C 41.0°F / 5.0°C 77% 29.88 in / 1011.8 hPa 10.0 miles / 16.1 kilometers South 8.1 mph / 13.0 km/h 20.7 mph / 33.3 km/h 0.00 in / 0.0 cm   Mostly Cloudy
7:53 PM 46.9°F / 8.3°C 39.9°F / 4.4°C 77% 29.90 in / 1012.3 hPa 10.0 miles / 16.1 kilometers South 12.7 mph / 20.4 km/h - 0.00 in / 0.0 cm   Overcast
8:24 PM 46.4°F / 8.0°C 39.2°F / 4.0°C 76% 29.91 in / 1012.8 hPa 10.0 miles / 16.1 kilometers South 12.7 mph / 20.4 km/h 24.2 mph / 38.9 km/h N/A   Mostly Cloudy
8:53 PM 46.9°F / 8.3°C 39.0°F / 3.9°C 74% 29.91 in / 1012.6 hPa 10.0 miles / 16.1 kilometers South 11.5 mph / 18.5 km/h 19.6 mph / 31.5 km/h N/A   Mostly Cloudy
9:53 PM 46.9°F / 8.3°C 39.0°F / 3.9°C 74% 29.92 in / 1013.1 hPa 10.0 miles / 16.1 kilometers South 15.0 mph / 24.1 km/h 21.9 mph / 35.2 km/h 0.00 in / 0.0 cm   Mostly Cloudy
10:53 PM 46.9°F / 8.3°C 39.0°F / 3.9°C 74% 29.93 in / 1013.4 hPa 10.0 miles / 16.1 kilometers South 13.8 mph / 22.2 km/h 19.6 mph / 31.5 km/h 0.01 in / 0.3 cm   Mostly Cloudy
11:53 PM 46.9°F / 8.3°C 37.9°F / 3.3°C 71% 29.95 in / 1014.0 hPa 10.0 miles / 16.1 kilometers South 10.4 mph / 16.7 km/h 18.4 mph / 29.6 km/h N/A   Mostly Cloudy
Moon Phase
Feb. 05 Feb. 10 Feb. 17 Feb. 25 Mar. 04
Sunrise:07:29 AM (PST) Moon Rise:03:25 AM (PST)2/5
Sunset:05:17 PM (PST) Moon Set:12:31 PM (PST)2/5

Copyright © 2014 The Weather Underground, Inc.